Theta_e
345 345 346 346 347 348 348 345 343 342 343 345 346 346 346 345 345 344 342 340 339 339 339 340 341 342 343 343 344 344 342 337 333 331 331 331 332 332 333 337 341 345 347 347 347 348 348 347 346 347 348 349 350 350 349 348 343 337 331 328 328 330 332 333 334 335 336 337 339 339 338 337 336 337
345 345 345 345 346 349 350 348 345 343 344 345 346 347 347 346 346 346 346 342 338 336 336 336 337 337 339 340 341 341 338 335 333 333 332 331 331 331 333 337 342 345 346 346 347 347 347 346 346 348 350 350 349 348 345 341 335 330 328 328 329 333 334 334 333 333 335 337 338 339 339 340 338 338
344 344 345 346 347 348 350 349 347 345 345 345 346 347 347 347 347 348 348 343 337 334 333 332 332 333 335 336 337 337 336 335 334 333 333 331 329 330 333 338 342 344 345 345 346 346 346 346 348 349 349 348 346 344 340 335 330 327 327 328 330 332 333 331 330 331 333 333 333 334 337 339 339 339
342 341 341 343 345 347 349 349 348 346 345 345 346 346 346 348 348 348 348 344 337 334 334 332 332 334 335 335 336 336 336 334 333 333 332 329 329 330 332 337 341 343 344 345 345 345 346 347 349 349 348 345 344 341 336 331 327 325 326 327 329 329 328 327 326 327 328 328 328 330 334 337 338 339
340 339 339 339 341 343 346 348 348 347 347 346 346 346 346 347 347 347 347 345 338 333 334 335 335 337 338 337 338 338 335 332 331 331 330 329 329 329 330 334 339 342 343 344 345 347 348 349 349 349 347 344 342 338 332 327 324 324 325 327 327 326 324 323 323 323 323 324 325 326 330 334 336 338
338 338 338 337 338 340 342 345 347 348 347 347 347 347 347 347 347 347 347 347 342 335 333 334 335 338 339 338 338 337 334 331 330 329 328 328 328 329 330 333 337 341 343 345 347 349 350 349 349 348 345 343 341 336 330 325 324 324 325 325 324 322 321 321 321 321 321 322 322 323 325 329 333 335
337 337 336 337 337 338 339 340 344 347 348 349 348 348 347 347 347 348 347 347 345 340 335 334 335 337 338 337 336 335 333 332 330 328 327 327 328 329 331 333 337 341 344 348 350 351 350 349 348 347 344 341 340 336 330 325 323 324 324 324 322 321 321 321 321 321 321 321 321 321 321 323 326 329
337 337 336 336 337 338 338 338 339 342 345 347 348 348 348 347 347 348 347 346 345 342 338 336 336 336 335 334 334 333 332 331 329 328 327 327 327 330 333 335 338 343 347 350 352 351 350 348 347 345 343 342 341 338 332 326 323 323 324 322 321 320 321 321 322 321 321 321 321 320 320 320 320 322
336 336 336 336 337 337 337 337 337 338 339 341 342 343 345 345 345 345 344 343 343 341 339 337 335 334 334 333 333 333 331 330 328 327 328 328 328 330 335 338 341 345 349 352 353 352 349 348 346 345 344 343 343 343 337 327 322 323 323 321 321 321 321 321 322 322 321 321 321 320 320 320 320 319
333 334 334 334 336 336 335 336 336 336 337 338 338 339 340 342 342 342 340 340 340 339 338 337 335 335 334 334 333 332 330 329 328 327 327 329 330 331 335 340 344 348 351 353 352 351 349 348 347 345 345 345 345 346 341 328 322 323 321 320 321 321 321 322 322 322 322 321 322 321 320 320 319 319
330 331 332 332 333 333 334 334 334 335 336 336 337 337 338 339 339 339 338 339 338 338 338 338 337 337 336 335 333 332 330 329 330 330 328 329 330 332 336 342 346 349 352 352 351 350 349 348 347 346 346 347 347 347 341 328 322 322 320 320 321 321 321 322 321 322 322 322 322 321 321 320 319 319
327 328 329 330 331 332 332 332 333 333 334 334 335 334 335 335 336 336 337 337 337 338 339 339 338 337 336 335 334 332 331 331 333 334 333 332 332 332 336 344 348 350 352 352 351 350 349 348 347 347 347 348 347 344 338 328 322 321 320 320 321 321 321 321 321 322 322 322 322 321 321 320 319 319
326 326 326 328 329 330 331 332 332 332 332 333 332 332 332 333 333 333 334 335 336 336 337 335 335 335 335 335 334 333 332 333 335 337 337 337 336 334 337 344 349 351 352 352 351 350 349 348 348 348 348 348 345 339 333 326 322 321 321 320 321 321 321 321 321 322 322 322 322 321 321 320 319 318
325 326 326 327 327 328 330 331 331 332 331 332 331 331 331 331 331 331 331 331 332 333 333 332 332 333 332 332 334 334 334 336 339 341 341 341 338 336 337 343 349 351 352 352 352 350 349 349 348 348 349 346 340 332 328 325 323 322 321 320 320 321 321 321 321 321 322 322 322 321 321 320 319 318
324 325 325 326 327 328 328 329 330 331 331 331 331 331 331 330 330 330 330 329 329 330 331 331 332 333 332 333 335 335 334 338 341 343 344 344 343 340 339 342 348 351 353 353 353 352 350 349 348 348 348 344 335 327 324 323 323 322 322 320 320 320 321 321 321 322 322 322 322 321 320 319 319 318
323 324 325 326 327 328 329 329 330 329 330 331 331 331 331 331 331 331 330 329 329 329 329 331 332 334 336 336 336 336 337 341 344 345 345 346 346 343 340 343 347 351 353 354 354 353 351 349 349 348 347 343 333 325 323 323 323 323 322 320 320 320 321 321 322 322 322 322 321 321 320 319 318 318
324 324 325 326 327 329 331 331 331 330 330 330 331 331 332 332 332 332 332 331 331 330 330 331 332 333 338 339 338 338 342 344 345 345 345 346 347 345 342 342 344 348 352 354 354 354 352 350 349 348 347 342 332 326 323 323 324 325 323 321 320 320 321 321 322 322 322 322 321 320 319 319 318 318
326 326 326 326 327 329 331 333 333 333 332 331 332 331 331 331 332 333 333 333 333 333 332 332 332 332 337 340 340 342 344 345 345 345 345 345 346 346 342 340 342 346 350 353 354 353 352 351 349 348 346 341 333 326 323 322 324 325 323 321 320 321 321 321 322 322 322 322 321 320 319 318 318 318
328 327 327 327 328 329 331 333 335 335 335 334 334 333 331 331 331 331 332 332 333 334 333 333 333 333 335 339 341 343 345 344 343 343 344 345 345 345 342 341 342 345 349 352 354 353 352 351 350 348 346 342 334 326 323 322 324 324 322 320 321 321 321 322 321 321 321 321 321 319 319 318 318 318
331 329 329 329 330 330 332 334 336 337 338 338 337 335 333 332 331 330 330 330 331 332 333 333 333 333 335 336 338 341 342 342 343 344 345 345 345 344 342 341 342 344 348 352 354 355 354 351 350 348 346 342 336 328 323 322 323 322 321 320 321 321 321 321 321 321 321 320 320 319 318 318 318 318
333 332 331 331 331 331 332 334 336 339 340 340 339 338 336 334 332 330 329 329 330 331 332 332 332 332 332 333 334 337 339 340 342 344 344 344 344 343 342 343 343 344 347 350 353 356 355 352 349 347 345 343 337 329 323 322 323 322 320 321 322 321 322 321 320 321 321 320 320 319 318 317 317 317
336 335 334 334 334 333 333 335 338 341 342 342 341 340 338 335 332 329 328 328 329 330 331 331 332 332 331 332 334 337 339 340 340 341 341 342 342 342 341 344 345 346 346 349 352 355 354 351 348 346 344 342 338 330 324 323 323 322 321 321 322 322 321 321 320 320 320 320 319 319 318 317 316 316
337 337 336 336 336 334 334 337 340 342 344 344 342 341 340 336 331 328 328 328 329 330 330 330 331 331 333 335 337 339 341 342 342 341 341 341 341 341 341 345 347 348 348 349 351 354 353 350 348 346 344 341 336 329 325 323 323 321 321 322 322 322 321 321 320 320 319 319 319 318 317 317 316 316
339 338 337 338 337 336 335 337 340 344 345 344 343 343 341 336 330 327 327 329 330 331 331 330 331 332 334 336 338 340 341 343 344 344 343 342 341 341 342 345 348 349 349 351 352 353 352 349 347 347 345 340 333 327 325 323 322 321 322 323 322 321 320 320 320 319 318 318 318 317 317 316 315 315
339 338 337 338 339 338 337 337 340 344 345 345 345 344 341 335 330 329 329 329 331 333 333 332 332 332 333 335 337 339 340 342 344 346 345 343 342 342 343 346 348 349 350 351 352 352 351 349 347 346 345 338 330 326 325 323 322 322 322 323 322 321 320 320 320 319 318 318 317 316 316 315 315 315
339 337 338 339 340 339 338 338 341 344 345 346 346 345 342 339 336 336 336 336 338 339 338 338 337 336 336 337 338 338 339 341 343 346 346 344 343 343 344 347 349 350 350 350 351 350 350 347 345 346 345 338 329 326 325 323 322 322 323 323 321 320 320 320 320 319 318 317 317 316 316 316 315 315
338 337 338 340 341 341 340 340 341 343 344 346 346 346 346 345 344 344 344 344 344 344 344 344 344 342 341 341 340 340 340 341 342 345 345 345 345 344 345 349 351 351 350 350 350 350 349 346 345 346 346 338 329 326 325 323 322 323 323 322 321 320 320 320 320 319 319 318 317 316 316 316 315 315
340 339 340 341 342 342 343 343 343 344 345 347 347 347 348 349 349 349 348 349 349 349 349 349 348 346 345 344 343 340 340 341 343 344 344 345 345 345 347 350 351 351 350 350 349 349 348 345 345 347 345 338 329 326 325 323 322 323 323 321 320 320 320 320 320 319 319 318 318 317 317 316 316 316
342 341 341 342 343 344 345 346 347 347 347 348 348 349 349 350 351 351 352 352 353 353 352 351 350 348 346 344 342 342 343 344 344 344 344 345 347 347 349 351 351 350 350 349 347 347 347 346 347 346 342 335 330 326 324 323 323 323 322 321 321 320 320 320 320 319 319 319 319 318 318 317 317 317
346 345 345 345 346 347 348 349 349 349 349 349 350 350 350 351 352 352 352 353 353 353 352 351 350 349 348 346 345 344 345 345 344 344 345 346 347 348 350 351 352 351 350 349 348 348 347 347 347 344 338 333 329 326 323 323 323 322 321 321 321 320 320 320 320 319 319 319 319 319 318 318 317 317
349 347 347 348 348 348 349 350 350 350 351 351 350 351 351 351 351 350 350 351 351 351 351 350 350 350 350 349 348 347 346 345 345 345 346 347 349 350 352 353 354 352 350 349 349 348 347 346 344 339 335 332 329 325 323 323 322 321 321 321 321 321 320 320 320 319 319 319 319 319 318 318 318 317
352 350 349 349 349 349 349 350 350 350 351 351 351 351 350 350 350 349 349 350 350 350 349 350 349 350 351 350 349 348 348 347 347 347 348 350 351 352 354 355 355 353 350 348 348 347 347 345 340 336 334 332 328 324 323 323 322 321 321 321 321 321 321 321 320 320 319 319 319 319 319 319 318 318
354 353 351 351 351 350 350 350 350 350 351 351 351 350 351 351 350 350 350 349 348 348 349 349 350 350 350 349 349 351 351 350 349 349 351 353 353 354 355 356 354 352 349 348 348 348 347 344 339 336 334 331 326 324 323 322 322 321 321 321 321 321 321 321 321 320 320 320 320 320 320 319 319 318
355 354 353 352 352 352 352 351 351 351 351 351 350 350 351 351 351 351 350 349 348 348 349 349 349 349 349 350 351 353 353 351 351 352 354 354 354 355 355 355 354 352 349 349 350 349 346 343 340 337 333 330 326 324 323 323 322 322 322 322 322 322 321 321 321 321 320 320 320 320 320 320 319 319
356 355 354 354 353 353 352 352 352 351 351 351 351 351 351 351 351 350 349 347 347 348 349 348 349 349 350 352 354 355 355 354 353 354 355 355 355 355 354 354 354 352 349 349 350 349 346 344 340 336 333 329 326 324 323 323 323 322 322 322 322 322 322 322 322 322 321 321 321 320 320 320 320 320
356 356 355 355 354 353 353 352 352 352 352 352 352 351 351 350 349 347 346 346 347 349 350 350 350 352 353 354 355 355 356 355 354 353 352 352 353 354 354 353 352 352 350 349 350 348 345 343 340 335 332 329 325 324 324 323 323 323 323 323 323 323 323 323 323 323 322 322 321 321 321 320 320 320
357 357 356 355 355 354 354 353 353 353 353 353 353 351 349 349 348 347 347 349 350 351 352 352 353 354 354 354 355 356 356 356 354 353 353 353 354 354 353 352 351 350 350 350 349 345 342 340 337 333 331 328 326 325 324 324 324 324 324 323 324 323 323 324 323 323 323 323 322 322 321 321 320 320
358 357 356 356 356 355 355 354 354 354 354 353 353 351 347 347 348 348 349 351 352 353 353 354 355 355 355 355 355 355 356 356 355 355 355 355 355 354 354 353 351 350 349 348 346 341 338 336 334 331 330 328 326 324 325 326 326 325 324 324 324 324 324 324 324 324 323 323 323 323 322 322 321 320
358 358 358 357 357 356 355 355 355 355 354 354 353 351 348 348 349 350 351 353 354 355 355 355 355 355 355 355 355 355 355 355 355 355 354 354 354 354 354 353 351 350 348 345 340 335 332 332 332 330 328 326 324 324 326 326 326 325 324 325 324 324 324 324 324 324 324 324 323 323 323 323 322 321
359 359 359 359 358 357 356 356 356 355 355 354 353 352 350 351 352 353 353 354 356 356 356 356 356 355 355 355 354 354 353 353 354 354 353 353 354 354 353 351 350 350 347 342 337 333 331 330 330 327 325 325 325 327 327 327 325 325 325 325 324 325 325 325 324 325 325 324 324 324 324 324 323 322
360 359 360 360 359 358 357 356 356 356 356 356 355 353 352 352 353 353 354 355 356 357 357 357 356 356 356 355 354 353 353 353 354 353 353 354 354 353 353 351 348 346 344 339 334 331 330 328 326 325 326 327 327 327 327 326 326 325 325 325 325 325 325 325 325 325 325 325 325 325 325 324 323 323
361 361 362 361 360 359 358 358 358 357 357 357 356 354 353 354 354 354 354 355 356 357 358 357 357 357 356 355 354 354 354 354 353 352 353 354 354 352 351 349 346 344 342 336 330 329 328 327 326 326 327 327 327 326 326 326 326 325 325 325 325 325 325 325 326 325 325 326 325 325 325 324 324 323
362 363 363 362 361 360 360 359 359 359 359 358 357 356 355 355 355 355 355 356 357 358 358 358 357 357 356 354 354 355 355 355 354 353 353 354 352 351 349 348 345 343 338 331 328 328 328 326 326 326 327 327 326 326 326 326 325 325 325 325 325 326 326 326 326 326 326 326 325 325 325 324 323 323
363 363 363 363 362 362 361 361 361 360 359 359 358 357 356 356 356 356 356 356 357 357 358 358 357 356 355 355 355 355 355 354 353 353 353 353 351 349 347 345 343 339 334 329 329 330 328 326 326 326 326 327 327 326 326 326 325 325 326 326 326 326 326 326 326 326 325 325 325 325 325 325 324 324
363 364 364 363 362 361 361 361 361 360 359 359 359 358 358 358 358 357 357 356 357 357 357 357 356 356 355 356 356 354 353 352 351 351 351 350 347 344 342 340 339 336 333 331 331 330 328 326 326 327 327 327 327 326 326 326 326 326 326 326 326 326 325 325 325 325 325 324 324 324 323 323 323 323
Wind_Speed
7 8 9 9 9 8 9 10 10 11 10 9 8 8 8 9 10 11 12 11 9 8 8 9 10 11 12 11 12 14 16 16 17 18 17 17 18 18 18 17 16 15 15 15 14 14 15 17 18 19 20 21 21 21 21 22 24 25 25 25 24 23 22 23 23 23 23 22 20 18 17 16 16 17
8 8 8 9 9 9 9 10 10 11 11 9 8 8 8 8 9 10 13 14 10 8 8 9 10 11 11 12 12 14 15 16 17 16 15 16 18 18 18 18 17 16 16 16 15 15 17 18 19 19 20 19 19 20 21 23 24 24 24 23 23 22 22 22 22 22 21 21 21 21 20 18 17 17
8 9 9 9 9 10 10 10 11 11 11 11 10 10 10 10 10 11 13 15 12 9 9 9 10 11 11 11 11 11 13 15 14 13 13 15 17 19 18 17 16 16 16 16 16 17 17 17 18 19 19 18 19 21 23 24 23 23 22 22 22 21 21 20 20 20 20 20 20 20 20 18 17 16
10 10 10 10 10 10 11 12 12 13 13 14 13 13 12 12 13 13 14 16 14 10 9 9 9 11 11 10 9 10 11 12 11 11 13 15 17 18 18 16 15 16 16 16 17 17 17 17 18 18 18 19 21 22 23 23 22 22 22 21 20 19 19 19 20 20 21 21 20 19 18 17 16 15
11 11 11 11 11 11 12 12 13 14 14 15 15 14 14 14 14 15 15 16 15 11 9 10 10 10 11 10 9 10 10 10 9 10 12 15 16 17 17 16 15 15 15 16 16 16 16 17 18 19 19 19 21 21 22 21 21 21 21 19 19 19 19 20 21 22 22 22 21 19 18 17 16 15
12 12 12 11 11 11 13 13 14 15 15 15 15 14 15 15 15 16 15 16 17 15 12 11 11 11 12 11 11 12 12 11 9 10 13 15 16 17 17 16 14 14 15 15 15 16 17 18 19 19 19 19 20 21 21 21 20 20 19 18 18 18 19 20 22 23 23 24 23 22 19 17 16 15
13 13 13 12 11 11 13 13 14 15 15 15 15 15 15 15 15 15 15 15 17 18 17 15 14 13 13 12 12 13 13 12 11 12 15 16 17 18 17 15 14 14 14 14 15 18 19 18 19 19 19 20 21 22 22 21 20 19 18 17 17 18 19 20 21 23 24 25 25 24 22 20 18 17
14 14 14 13 12 12 13 14 14 15 15 15 15 16 15 15 14 14 15 16 18 19 19 18 16 16 16 14 13 14 14 12 11 13 15 16 17 17 17 15 14 13 13 14 17 19 19 17 17 18 19 20 21 22 22 21 19 18 16 16 17 17 18 20 21 23 23 24 25 25 24 23 22 20
15 15 15 14 14 14 14 14 14 15 15 16 16 16 16 16 15 15 16 17 18 20 21 20 19 18 17 16 15 14 14 13 12 13 15 16 16 17 17 16 14 12 13 14 17 19 18 17 17 18 19 21 22 23 22 20 18 15 15 16 17 17 19 20 21 22 23 24 25 25 25 24 23 22
17 16 16 15 15 16 15 15 15 15 15 15 15 15 15 15 16 16 16 17 18 19 20 21 21 19 18 17 15 14 14 14 14 14 16 16 16 17 16 15 13 12 12 13 17 19 18 17 17 18 20 21 23 24 23 20 16 14 15 17 18 18 20 21 22 23 24 25 26 26 26 25 24 23
18 18 18 17 17 17 17 16 15 15 15 15 15 15 14 15 15 16 16 16 17 18 19 20 20 20 18 16 15 15 14 14 15 16 17 18 18 18 17 15 13 12 11 13 16 19 19 18 18 19 21 23 25 26 24 19 15 14 16 18 18 20 21 21 22 24 24 26 27 27 26 25 24 22
19 19 19 19 18 18 18 17 17 16 16 16 16 16 16 16 16 17 17 17 18 19 20 20 20 20 19 17 15 15 14 14 15 16 18 19 19 19 18 15 13 12 11 12 15 18 19 19 19 20 22 24 26 26 23 19 15 15 17 19 19 20 21 22 23 24 25 26 27 27 26 25 23 22
20 20 19 19 19 19 19 18 18 18 18 18 18 17 17 18 18 18 18 18 19 19 20 21 20 20 21 18 16 14 14 15 16 17 18 20 20 20 18 15 13 13 12 13 15 17 18 19 19 20 22 24 25 25 22 18 16 15 17 19 20 21 21 22 23 24 25 26 27 27 26 24 23 21
22 21 20 19 19 19 20 20 20 20 20 20 20 19 19 19 20 20 20 20 20 20 21 21 21 22 23 20 16 15 15 15 16 17 19 20 21 21 19 16 13 12 13 14 16 17 18 18 18 19 21 23 24 24 21 18 16 15 17 19 20 20 21 22 23 24 25 26 26 26 25 23 22 20
25 23 22 21 20 20 20 21 21 21 21 21 21 21 21 21 22 22 22 22 21 22 22 22 23 24 25 21 16 15 16 16 17 18 20 21 21 21 21 18 15 14 14 15 16 17 18 17 17 19 20 22 23 23 20 18 16 16 17 19 20 20 20 21 23 24 25 25 25 24 22 22 21 20
27 26 25 24 23 22 21 21 22 22 23 22 22 22 21 22 22 23 23 23 23 23 23 24 24 24 24 21 17 15 17 18 18 19 20 21 22 22 21 20 18 17 16 17 17 18 19 18 18 19 20 21 22 23 20 18 16 16 18 20 20 20 20 21 22 23 24 24 24 22 20 20 20 20
29 28 27 26 25 24 23 23 23 23 24 23 23 23 22 22 22 22 22 23 23 24 24 25 25 23 22 21 19 17 19 21 21 21 20 21 21 22 21 20 20 19 18 18 19 19 19 19 19 19 20 20 22 23 21 18 16 17 19 20 20 20 20 21 22 22 23 23 22 20 19 18 19 19
30 30 29 28 27 25 24 24 23 23 24 24 24 24 24 23 22 21 21 21 21 23 24 26 26 24 22 22 21 20 21 22 22 21 21 21 22 22 22 21 20 20 19 18 19 19 19 19 20 20 20 20 21 22 21 19 17 17 20 21 21 21 21 22 22 21 21 21 20 19 18 17 18 19
31 31 30 30 28 26 25 24 24 24 24 24 24 25 25 25 24 23 22 21 21 22 23 25 27 26 24 24 24 24 23 23 22 22 22 23 23 23 23 22 21 20 19 17 18 19 19 19 20 20 20 20 21 21 21 19 17 18 20 22 22 22 22 22 22 21 20 19 19 18 17 17 17 18
31 31 31 30 29 28 27 25 24 24 24 25 25 26 26 26 25 25 24 23 23 23 23 25 26 27 26 26 26 26 25 24 23 23 24 24 23 23 24 23 21 20 18 17 17 18 19 19 19 20 20 20 20 20 19 18 17 18 20 21 22 22 22 22 22 20 19 19 18 17 16 16 17 19
30 30 30 30 29 29 28 26 25 24 24 26 27 27 27 26 27 27 26 25 25 25 25 25 26 27 26 26 26 27 26 25 24 25 27 26 23 23 24 24 22 20 19 17 17 18 18 17 18 19 20 20 19 19 18 16 15 17 19 20 22 22 21 21 21 20 20 19 18 17 17 16 17 19
29 29 29 28 28 29 28 26 25 24 25 27 28 28 27 27 28 29 28 27 26 25 25 26 26 26 26 26 25 25 24 24 24 26 26 24 22 23 24 24 23 22 20 17 16 18 17 15 15 18 19 20 18 17 17 15 14 15 17 19 21 21 20 19 19 20 20 20 19 18 18 17 18 18
29 28 28 27 28 28 28 26 25 24 25 27 28 28 28 29 30 30 28 28 27 26 25 25 25 25 25 24 23 22 21 21 21 22 22 21 21 23 24 23 22 22 20 16 14 16 15 13 14 16 18 19 19 16 14 13 13 14 15 17 19 19 18 18 18 19 19 20 20 19 19 18 18 18
29 28 27 27 27 28 28 27 25 24 24 26 26 27 28 30 30 28 27 27 27 26 26 26 25 24 23 22 22 22 21 20 20 19 19 20 21 23 23 22 21 21 19 16 15 16 15 13 14 15 16 18 19 16 13 12 13 13 13 14 16 16 15 16 17 17 18 19 20 20 20 20 19 19
28 28 27 27 26 27 28 27 25 24 23 23 24 25 26 28 28 26 25 26 26 26 26 26 25 25 24 24 23 23 23 23 22 21 21 21 22 23 23 22 21 20 19 17 17 17 15 13 14 16 17 18 17 16 14 13 13 13 12 12 13 13 13 14 15 16 17 18 18 19 20 20 20 20
28 27 27 26 25 26 26 27 26 24 23 22 23 22 22 22 21 21 22 23 23 24 24 24 25 26 26 26 25 25 26 26 25 24 22 22 23 24 23 22 21 21 19 18 19 18 16 15 15 16 18 17 15 15 15 13 13 12 11 11 10 10 11 12 13 14 16 16 17 18 18 19 19 19
28 27 27 25 24 24 25 26 25 24 23 23 23 21 19 18 18 18 19 21 22 23 23 24 26 27 28 28 28 28 28 27 26 25 24 24 24 25 24 22 22 22 20 20 21 19 18 18 16 16 17 17 15 16 15 13 11 11 10 9 8 8 9 10 11 13 14 15 16 17 18 18 18 18
28 27 27 25 24 24 24 25 24 24 24 24 24 22 20 19 19 20 22 23 23 24 26 27 28 29 29 30 30 30 29 28 27 27 27 26 26 26 24 23 23 23 22 22 22 20 20 19 16 16 17 17 17 16 14 11 10 10 10 9 8 7 7 9 10 12 14 14 15 16 17 18 19 19
28 27 25 24 24 24 25 25 25 26 26 25 24 23 22 22 22 23 25 26 26 28 29 29 30 31 31 32 32 31 29 28 28 28 29 28 27 26 25 24 24 24 24 24 21 20 20 19 16 17 18 18 17 15 12 10 10 10 9 8 8 7 6 7 8 11 13 15 16 17 18 19 20 21
27 26 25 24 25 26 26 27 27 27 27 27 27 27 26 26 26 27 28 28 30 31 31 31 32 33 32 32 32 31 29 29 29 28 28 27 27 26 25 25 25 25 24 22 19 19 19 19 18 19 20 18 16 13 10 10 10 10 9 8 7 6 5 5 7 9 12 15 16 17 18 19 20 22
27 26 26 26 26 27 28 28 29 30 31 31 30 30 29 29 29 29 30 31 32 33 33 33 34 34 33 32 32 32 32 31 30 27 26 26 26 25 24 24 25 25 22 20 19 19 19 19 19 20 20 18 14 11 10 10 10 9 9 8 7 5 4 4 6 8 10 13 16 18 18 19 20 20
26 27 28 28 28 29 29 30 31 32 33 33 32 32 32 31 30 31 32 33 34 34 34 35 35 35 35 35 34 33 32 32 30 27 26 25 25 24 23 25 25 23 20 20 20 20 20 21 20 20 19 16 13 11 10 10 10 10 9 8 6 5 4 4 5 7 9 11 14 16 18 18 18 19
26 28 31 32 31 31 32 32 33 34 35 34 34 33 33 32 32 33 34 35 35 34 34 35 36 37 37 36 35 33 32 32 30 28 25 24 23 24 25 26 25 22 19 19 19 20 21 22 22 21 19 16 14 13 11 9 8 8 8 7 5 4 4 5 5 6 8 10 12 15 17 18 18 18
28 30 32 33 33 33 33 34 34 35 36 35 34 34 34 33 33 34 35 35 34 34 35 37 38 38 38 37 36 34 32 31 30 27 25 24 24 25 26 26 25 22 20 19 20 21 22 22 22 21 19 17 15 14 11 9 8 8 7 6 5 5 5 6 7 8 9 10 12 13 15 17 18 18
28 29 31 32 32 32 33 34 35 36 36 35 34 33 33 34 34 35 35 34 33 33 35 37 38 39 38 38 37 34 31 29 29 28 26 26 27 28 29 28 26 22 19 18 20 23 23 22 22 21 20 18 17 15 12 10 9 8 7 6 6 5 6 7 9 10 10 11 12 13 14 16 17 17
29 29 31 31 31 31 33 33 34 36 36 35 33 32 33 34 34 34 34 33 32 33 34 36 37 38 37 37 36 34 31 29 29 30 29 29 30 31 30 27 25 21 18 19 22 25 24 22 22 22 21 20 18 16 13 11 9 9 8 6 6 6 7 8 9 11 11 12 13 13 15 16 16 17
30 30 32 32 31 31 31 32 33 34 35 33 32 31 33 34 34 32 32 32 33 34 36 36 36 36 35 34 33 33 32 30 29 30 30 30 31 31 30 27 24 23 23 23 24 25 24 22 23 23 22 20 20 18 14 11 10 10 9 7 6 7 8 9 10 11 12 13 13 14 15 16 17 17
30 31 32 32 32 32 31 31 33 33 33 32 31 31 33 35 34 32 32 34 34 34 34 35 36 35 33 32 32 31 31 29 28 28 28 29 29 30 30 28 24 25 28 27 24 23 22 23 24 24 23 22 22 19 15 12 12 11 10 8 8 8 9 10 11 12 13 14 14 14 16 16 17 17
32 32 32 32 32 32 32 32 33 33 32 31 31 31 33 34 33 32 33 35 34 33 32 33 33 32 31 31 31 30 29 28 26 27 28 29 28 27 27 26 23 25 29 27 22 21 22 24 25 25 23 22 20 16 13 13 13 12 10 10 10 10 10 12 13 14 14 14 14 15 16 17 17 17
34 33 33 33 33 33 33 33 33 32 32 31 31 30 31 32 31 31 33 34 34 32 31 31 30 30 30 30 29 28 27 26 25 26 26 27 26 24 23 24 24 25 25 23 20 21 23 24 24 22 20 18 16 14 13 15 15 13 10 11 12 12 13 14 15 16 16 15 15 16 16 17 18 18
35 35 35 35 35 34 34 34 33 32 32 31 30 30 31 31 30 30 31 32 32 32 32 31 30 30 31 30 27 25 23 23 24 24 23 24 24 23 21 23 25 23 21 21 21 22 22 20 18 17 16 15 15 16 17 18 17 13 11 11 13 15 16 16 17 17 17 17 17 17 17 18 19 19
36 36 36 35 36 36 35 34 34 33 32 31 30 30 31 31 30 30 31 32 32 33 32 31 31 32 32 29 25 23 21 21 22 21 21 24 25 23 21 22 23 21 19 20 20 19 17 16 15 16 17 17 18 18 19 19 17 14 13 14 16 17 17 18 18 18 18 19 18 18 19 20 21 21
37 37 36 36 36 36 36 35 34 33 32 30 29 30 30 30 31 32 32 32 33 33 32 31 32 33 30 26 23 21 20 22 21 20 21 24 24 21 19 20 20 18 18 18 18 16 15 16 16 17 18 19 19 20 20 18 17 16 16 17 17 17 18 18 19 20 20 21 21 21 20 21 21 23
40 39 37 36 36 36 36 35 34 33 31 29 28 29 31 32 33 33 33 33 33 33 33 33 33 31 26 23 21 19 20 23 23 21 21 22 21 19 19 19 19 17 18 19 18 17 17 17 17 18 19 19 20 20 20 19 19 19 19 18 18 18 19 20 21 22 23 23 23 24 23 23 23 24
40 39 38 37 37 37 36 35 34 32 31 29 28 29 31 33 33 33 32 32 33 33 33 34 33 30 26 23 20 17 18 21 22 20 19 19 18 18 18 18 17 17 19 20 19 18 18 19 18 19 19 20 20 21 21 20 20 20 19 19 19 20 21 22 23 24 25 25 25 25 24 24 24 24
Wind_Direction
252 251 249 249 250 253 253 250 251 253 260 275 296 307 306 304 309 313 315 317 321 324 322 319 320 321 323 328 334 337 336 335 336 338 340 339 336 334 333 334 335 333 329 326 324 321 319 320 324 324 323 322 321 321 323 326 328 328 328 330 335 339 342 345 346 346 346 347 349 348 347 345 342 336
260 259 254 251 249 248 249 250 251 251 256 267 284 296 299 295 296 306 312 314 318 324 324 322 319 315 317 324 330 332 332 331 332 334 337 337 334 333 334 334 333 328 324 322 319 317 319 322 325 324 323 324 327 330 333 334 335 335 336 338 340 343 345 346 345 345 346 345 345 343 342 342 343 342
266 265 263 260 256 252 249 247 250 252 256 264 274 284 290 291 293 302 310 310 311 317 315 314 316 313 315 325 329 327 326 326 328 332 336 337 335 335 335 334 329 322 319 316 315 317 321 325 327 327 329 335 339 340 340 340 340 339 339 340 342 344 346 345 344 345 345 343 341 340 339 339 340 340
263 266 266 265 264 260 253 248 249 252 256 263 270 277 283 289 295 302 308 308 307 311 311 308 309 311 315 325 327 322 322 323 325 333 337 338 337 336 336 334 325 318 315 312 315 320 324 329 332 334 338 344 347 345 343 342 340 340 340 341 343 345 344 343 345 345 344 343 342 341 340 339 339 338
260 264 265 266 267 265 259 254 253 253 256 262 268 274 280 287 294 300 305 306 305 306 308 307 308 309 311 319 321 320 323 322 322 331 337 340 339 334 335 332 324 318 313 313 320 325 328 336 340 340 344 349 349 347 343 341 341 340 341 343 344 343 342 346 349 350 349 349 349 347 342 338 338 337
261 264 266 267 269 270 266 262 258 256 258 263 267 272 278 284 291 297 301 302 303 303 303 303 305 307 307 311 316 321 327 328 325 330 336 340 338 333 332 331 324 318 315 319 327 328 332 343 347 344 346 349 348 345 343 341 341 341 341 342 341 341 346 352 355 355 355 355 354 353 349 343 339 337
267 268 268 269 271 272 271 268 264 261 261 264 267 270 275 282 287 292 294 295 298 301 301 302 306 308 307 311 317 321 327 330 328 331 336 338 335 332 331 329 324 319 321 329 332 329 336 347 348 344 344 346 346 343 342 341 340 339 339 339 340 343 352 357 357 356 356 354 352 352 353 352 348 344
268 270 271 271 271 270 270 270 268 266 265 266 269 271 272 276 280 284 287 289 292 296 298 302 306 309 310 314 319 320 322 326 327 331 335 336 332 330 331 329 325 325 329 335 331 329 337 345 342 339 340 342 342 340 341 340 337 336 336 338 341 347 355 359 357 356 355 353 350 350 352 352 351 349
265 268 270 272 271 270 269 270 270 269 269 269 270 272 274 275 278 281 284 286 289 291 295 299 303 306 309 313 316 318 319 319 323 328 333 335 329 326 331 332 330 332 336 335 330 328 335 339 335 335 336 336 337 338 340 340 336 335 337 339 344 351 357 358 355 353 353 352 350 348 349 348 348 348
265 266 268 269 269 269 269 271 271 270 271 271 271 272 275 277 279 281 283 286 287 289 292 296 299 303 307 310 312 315 316 316 321 325 328 333 330 325 330 334 335 339 339 334 329 327 332 335 331 331 333 332 334 337 340 340 338 338 342 344 348 354 358 355 351 351 350 350 349 348 346 345 345 346
267 267 267 267 266 266 267 269 270 269 269 270 271 272 274 275 276 277 280 283 285 288 290 292 295 300 302 305 307 311 312 313 322 327 326 329 331 328 331 336 337 341 342 335 329 327 329 331 329 328 330 330 332 336 339 340 340 343 347 349 353 356 354 351 349 349 348 347 347 346 344 343 343 345
268 268 268 268 267 265 265 265 266 267 267 268 269 270 271 273 273 274 276 278 280 283 285 287 291 294 295 298 301 304 306 311 321 329 329 329 329 327 331 336 334 334 337 334 329 327 328 329 327 326 328 329 331 334 336 338 341 347 350 351 353 353 350 348 347 347 346 346 345 344 343 342 343 346
269 270 271 271 270 268 266 265 264 264 264 266 267 269 269 270 272 273 274 275 276 278 281 283 286 287 287 290 294 296 299 308 320 329 330 329 329 326 327 333 331 326 328 331 329 327 326 325 323 323 325 327 329 331 333 336 341 346 350 352 352 349 346 345 345 345 345 344 343 342 341 341 344 348
266 268 271 271 270 268 267 265 264 263 263 264 266 268 269 270 271 272 273 273 274 276 279 281 283 283 281 282 287 289 292 305 319 327 327 328 329 327 325 327 326 320 321 326 326 324 323 321 317 318 321 324 326 328 331 335 338 344 349 351 348 345 343 342 342 343 344 343 341 340 339 341 345 349
264 266 268 269 268 266 264 264 264 263 262 262 263 265 267 269 270 272 273 274 273 274 276 279 280 279 278 278 280 282 289 304 318 323 324 326 328 327 324 322 321 318 317 320 320 319 318 316 311 310 317 322 325 326 330 333 336 339 344 346 343 341 340 340 340 342 343 342 340 339 340 341 345 349
265 266 267 269 268 266 264 263 262 261 260 260 260 262 264 266 268 269 272 273 274 273 274 276 276 275 275 278 279 282 292 305 312 315 318 320 322 322 320 317 315 314 314 315 315 314 315 313 307 306 314 321 323 324 327 332 334 333 337 339 338 337 338 339 340 342 343 343 342 341 342 343 344 348
266 266 268 269 270 268 266 265 263 260 259 258 258 260 261 262 264 266 269 272 274 275 273 271 272 272 274 277 279 285 296 302 305 307 309 310 312 313 313 312 309 308 308 308 308 309 311 311 306 305 312 320 321 320 323 329 331 328 330 333 334 334 337 339 340 343 345 345 344 343 342 343 344 347
265 265 267 269 269 269 268 267 265 262 260 259 258 258 258 259 260 262 265 267 271 274 272 269 270 272 274 276 280 286 294 296 297 299 300 301 303 305 306 306 304 303 303 302 302 305 308 309 305 304 309 316 318 317 320 325 327 325 326 329 330 332 335 338 341 344 347 347 346 343 341 342 346 348
264 264 266 267 268 268 267 266 265 264 264 262 261 258 256 256 257 257 259 261 264 268 268 267 268 270 272 274 277 283 287 288 290 293 293 295 298 300 301 300 299 300 302 300 299 301 305 305 302 301 306 312 315 315 318 322 324 324 324 325 327 330 334 338 341 344 349 350 348 343 340 342 348 353
263 263 264 265 266 266 265 264 264 266 267 266 264 261 258 257 257 255 255 257 260 262 263 264 266 267 269 270 273 276 280 282 285 289 290 292 295 297 297 295 296 300 301 299 295 293 297 300 298 297 302 309 312 314 315 318 321 321 321 321 323 327 331 336 340 344 350 353 350 346 344 346 353 359
262 262 262 263 264 264 263 262 263 266 268 268 266 264 262 260 259 256 255 256 258 260 261 262 264 266 267 268 270 273 276 279 282 285 287 291 294 294 292 293 298 299 296 294 290 285 287 293 293 293 298 305 310 310 309 310 314 315 315 316 318 323 329 334 338 343 350 353 352 349 349 352 357 3
261 260 260 260 261 261 260 261 262 264 267 268 267 266 265 264 261 258 256 258 259 260 261 263 264 266 267 268 270 274 277 279 280 281 285 288 290 289 289 294 299 297 291 290 285 279 280 284 285 287 293 300 304 303 300 300 303 304 306 310 313 318 327 334 339 345 350 352 352 352 353 356 360 3
260 259 259 258 258 258 258 258 260 263 266 267 267 267 267 264 260 257 259 262 263 263 263 264 265 265 265 266 269 272 274 277 279 280 282 284 285 286 289 293 295 292 290 291 284 275 275 278 278 281 287 292 295 295 293 294 294 294 297 303 308 315 326 334 340 348 353 353 353 353 355 360 2 2
259 259 258 256 255 255 255 256 258 261 264 267 268 268 266 263 260 259 262 265 266 266 266 267 267 266 264 264 266 267 268 272 276 279 280 281 283 286 288 290 287 284 286 288 280 274 273 273 275 278 281 283 285 286 289 291 288 285 289 297 303 312 325 333 341 351 357 356 355 355 356 359 1 2
258 258 257 255 254 253 253 253 256 259 263 268 270 270 267 265 265 265 266 266 268 269 269 269 268 266 264 264 264 265 267 269 273 276 277 280 283 284 284 285 282 280 281 282 276 272 271 272 277 278 277 278 279 280 284 286 282 280 285 292 298 307 320 332 343 355 0 1 0 359 358 359 359 360
255 255 255 254 253 253 253 253 254 257 261 265 268 270 271 272 271 271 270 270 271 272 271 270 269 267 266 265 265 266 267 269 273 276 277 280 282 281 280 280 278 277 279 279 275 270 270 275 278 274 273 275 275 274 277 280 280 278 280 285 291 302 317 331 347 359 3 5 6 6 5 5 3 2
253 254 254 254 253 253 253 254 254 257 260 263 266 269 273 274 275 273 271 271 273 274 274 274 271 268 268 268 268 267 267 270 275 278 278 278 278 277 277 274 273 275 277 276 273 270 272 278 276 269 269 271 268 266 271 276 277 277 277 278 282 295 312 328 349 4 6 7 8 8 9 12 12 10
251 252 253 254 254 254 255 256 258 259 261 264 266 270 272 271 270 269 269 270 274 275 274 274 272 270 270 270 269 268 269 272 275 276 274 273 274 274 273 270 271 274 275 275 273 270 272 276 273 265 264 263 260 263 269 272 271 271 272 270 268 280 306 329 354 7 9 8 8 6 7 10 13 15
251 252 253 254 255 256 257 259 261 262 263 264 267 268 268 266 264 265 267 270 272 272 272 273 273 272 271 271 272 273 275 275 273 270 268 269 270 270 267 266 267 270 272 274 272 268 269 271 266 259 257 255 256 261 267 269 267 263 264 265 260 267 298 332 360 12 13 11 9 6 4 6 9 11
252 252 253 254 255 256 258 261 262 263 264 265 266 265 264 263 262 263 266 268 270 271 272 273 273 272 273 274 275 276 276 273 269 267 266 266 265 265 265 265 265 267 270 268 262 260 263 264 259 254 251 250 254 259 261 264 261 253 254 261 259 262 290 336 4 14 15 14 13 10 6 6 9 10
249 248 249 250 252 255 258 259 260 262 263 264 264 264 264 263 263 263 265 267 269 270 271 271 271 272 273 274 274 274 274 273 271 269 265 262 261 262 263 263 264 268 268 259 253 255 257 255 252 249 246 247 252 255 255 257 254 244 244 252 253 257 287 337 2 11 13 13 13 13 10 8 8 8
250 248 247 248 249 250 253 255 257 259 261 262 263 264 265 265 265 265 265 265 265 265 266 267 268 269 270 271 271 273 273 273 271 268 263 260 259 260 260 260 263 268 265 254 251 253 252 248 246 243 242 244 246 246 246 249 249 244 243 244 248 261 292 330 350 1 6 8 9 9 10 10 9 7
256 251 248 247 247 248 250 252 254 257 259 261 262 264 265 266 266 265 263 262 261 262 264 265 265 266 267 267 269 270 270 269 268 266 263 261 261 260 260 262 266 270 263 252 251 252 249 245 241 238 238 241 241 240 241 242 243 246 248 249 256 273 297 319 335 347 354 359 2 3 4 6 7 7
257 253 250 249 248 249 250 251 253 255 257 259 261 263 265 267 267 265 263 262 261 262 262 262 263 263 264 265 266 267 267 266 265 264 264 263 262 260 260 263 268 268 258 248 248 250 248 243 238 236 236 238 239 239 240 240 241 243 247 256 271 287 303 315 326 336 341 345 351 354 356 359 1 3
258 255 252 250 248 249 250 250 252 254 256 257 260 263 266 266 266 265 263 262 262 262 262 262 262 263 263 265 267 266 264 262 261 261 261 261 260 258 258 260 262 261 252 244 245 246 243 238 235 233 233 234 235 236 240 246 248 245 247 259 278 296 308 313 320 326 330 333 338 342 345 348 352 357
259 256 253 250 248 247 247 248 249 252 255 257 258 260 262 263 263 262 262 262 263 264 263 263 263 264 266 267 268 266 262 259 256 255 256 258 260 259 256 256 256 254 248 244 243 241 238 235 233 231 231 233 234 235 241 249 251 248 252 264 281 296 306 309 313 317 321 323 326 329 332 336 341 347
259 258 255 252 249 246 246 247 249 251 253 255 255 255 257 259 260 260 262 265 265 265 264 265 266 267 266 266 266 263 259 257 256 256 258 259 259 258 257 258 258 251 245 242 241 239 237 234 230 229 229 231 234 239 243 247 249 251 255 264 279 292 299 302 307 311 314 316 317 319 322 326 330 335
258 258 257 255 251 248 247 247 249 251 252 252 253 252 253 256 259 261 263 265 266 267 268 269 269 268 266 264 263 261 258 256 255 255 256 258 258 257 257 257 253 244 240 239 236 233 233 231 229 228 228 229 234 241 244 244 246 250 254 265 279 286 288 294 302 307 309 311 312 313 315 317 320 324
256 256 257 257 255 252 249 248 249 251 252 252 252 251 252 255 259 262 263 266 269 271 271 269 268 268 267 264 262 259 258 257 254 250 248 251 256 257 253 248 243 241 241 238 229 223 223 223 223 226 228 232 238 246 249 247 249 253 258 267 276 280 283 290 297 301 304 307 307 309 311 313 312 313
255 255 256 257 257 254 251 249 250 251 252 253 253 252 253 257 261 262 264 268 272 273 273 270 268 266 265 262 260 259 259 258 255 250 245 246 251 253 247 239 238 240 240 233 223 217 217 218 221 227 231 236 241 244 245 248 252 259 266 270 274 279 285 289 293 297 301 303 303 304 307 308 306 304
256 256 256 256 255 254 251 251 251 251 252 253 253 252 253 257 260 262 265 269 272 273 273 271 268 264 262 261 263 264 263 259 255 250 245 245 247 245 240 236 233 230 228 225 221 218 217 220 225 228 229 229 230 233 238 244 251 261 271 272 272 278 284 287 291 295 298 300 302 304 306 306 303 299
256 257 257 256 254 252 251 250 251 251 252 252 251 250 252 256 259 260 263 266 269 270 272 271 267 264 263 265 268 266 261 259 258 252 246 248 246 237 231 231 228 223 222 223 220 217 218 219 219 218 218 219 223 230 238 245 253 263 269 269 271 276 282 286 290 294 296 299 302 304 306 305 301 298
256 256 257 256 253 251 250 250 250 251 252 252 251 251 253 256 257 257 259 262 264 268 270 270 267 266 267 267 265 259 255 258 259 251 246 250 246 233 226 229 226 221 220 218 213 212 214 214 211 212 216 219 225 234 242 249 255 261 264 267 271 276 281 285 289 292 295 299 302 303 303 301 297 295
255 255 256 255 253 251 250 250 250 251 252 252 252 253 254 255 257 259 260 261 262 265 266 266 266 267 265 260 255 253 253 254 250 241 240 243 239 228 226 227 223 215 210 207 206 209 212 212 212 214 219 225 232 239 244 248 251 255 261 268 274 279 282 285 289 291 294 297 300 301 300 297 293 291
255 256 256 255 254 252 252 252 253 253 253 252 252 253 255 257 260 262 261 260 260 260 260 260 262 263 261 258 255 254 253 248 239 232 233 234 229 223 223 220 215 210 206 205 209 213 214 215 218 222 226 232 236 238 240 244 250 256 264 272 279 282 284 286 288 290 293 296 298 298 296 294 291 289